Regional Weather Roundup
Issued by NWS San Diego, CA

Home | Current Version | Previous Version | Text Only | Print | Product List | Glossary On
Versions: 1 2 3 4 5 6 7 8 9 10 11 12 13 14 15 16 17 18 19 20 21 22 23 24 25 26 27 28 29 30 31 32 33 34 35 36 37 38 39 40 41 42 43 44 45 46 47 48 49 50
000
ASUS46 KSGX 021611
RWRSGX

SAN DIEGO HOURLY WEATHER ROUNDUP
NATIONAL WEATHER SERVICE SAN DIEGO CA
800 AM PST MON MAR 02 2015

NOTE: "FAIR" INDICATES FEW OR NO CLOUDS BELOW 12,000 FEET WITH NO
SIGNIFICANT WEATHER AND/OR OBSTRUCTIONS TO VISIBILITY.

CAZ042-043-060-061-PZZ750-775-021700-

GREATER SAN DIEGO AREA

CITY           SKY/WX    TMP DP  RH WIND       PRES   REMARKS
LINDBERGH FLD  PTSUNNY   54  47  77 SE9       29.94S
NATIONAL CITY    N/A     53  51  92 E3        29.94S
CHULA VISTA      N/A     52  51  96 CALM      29.87S
IMPERIAL BEACH PTSUNNY   53  50  89 E6        29.94R
BROWN FIELD    LGT RAIN  52  47  83 SE9       29.93R
MIRAMAR MCAS   LGT RAIN  54  48  80 SE5       29.92S
MONTGOMERY FLD MOSUNNY   52  47  83 SE6       29.93R

$$

NORTH SAN DIEGO COUNTY

CITY           SKY/WX    TMP DP  RH WIND       PRES   REMARKS
CAMP PENDLETON LGT RAIN  50  46  86 N3        29.94R
OCEANSIDE AP   CLOUDY    49  47  93 N5        29.92R
OCEANSIDE HBR    N/A     50  49  95 E5        29.95R
VISTA            N/A     48  43  84 CALM      29.92R
CARLSBAD       HVY RAIN  49  45  86 E3        29.92R FOG
DEL MAR          N/A     51  50  96 CALM      29.94S
LA JOLLA SCRIP   N/A     52 -27   3 CALM      29.90S
FALLBROOK        N/A     47  47 100 CALM      29.95S
ESCONDIDO        N/A     50  48  92 W6        29.96R
SAN MARCOS       N/A     48  45  88 N3        29.92R
POWAY            N/A     49  47  92 SE1       29.96R

$$

EAST SAN DIEGO COUNTY

CITY           SKY/WX    TMP DP  RH WIND       PRES   REMARKS
RAMONA         PTSUNNY   47  44  90 SE3       29.92R
SANTEE LAKES     N/A     52  50  93 CALM      29.94S
LA MESA          N/A     51  48  90 CALM      29.89R
JAMUL            N/A     48  47  95 CALM      29.95R
DESCANSO N       N/A     39  37  94 CALM      29.87R
MT. LAGUNA OBS   N/A     30  30 100 CALM      29.46S
CAMPO            N/A     44  42  93 SW7       29.87S

$$

ORANGE COUNTY AND THE LOS ANGELES BASIN

CITY           SKY/WX    TMP DP  RH WIND       PRES   REMARKS
JOHN WAYNE AP  PTSUNNY   56  44  64 E5        29.91R
LAGUNA BEACH     N/A     48  46  93 N3        29.87R
LAKE FOREST FR   N/A     47  43  88 CALM      29.82S
SANTA ANA        N/A     50  46  85 CALM      29.87R
HUNTINGTON BCH   N/A     53  52  96 NE3       29.93R
LOS ALAMITOS   PTSUNNY   50  48  91 NE5       29.92R
FULLERTON      PTSUNNY   52  45  77 E6        29.91R
LONG BEACH     MOSUNNY   53  47  79 E6        29.92R
L.A. AP        PTSUNNY   50  47  89 NE6       29.92R
L.A. DOWNTOWN  MOSUNNY   51  47  86 CALM      29.92R

$$

THE INLAND EMPIRE

CITY           SKY/WX    TMP DP  RH WIND       PRES   REMARKS
CORONA         SUNNY     49  47  93 CALM      29.92S
CHINO          PTSUNNY   51  45  79 E3        29.93R
ONTARIO        MOSUNNY   50  44  80 E3        29.91R
SAN BERNARDINO PTSUNNY   46  39  76 SE3       29.91S
RIVERSIDE AP   PTSUNNY   50  43  77 NE6       29.91S
RIV CYN CREST    N/A     48  48 100 SE2         N/A
MORENO VALLEY    N/A     46  45  97 SE7       29.11R
MARCH ARB      PTSUNNY   46  46  99 SE6       29.90R
HORSETHIEF CYN   N/A     45  42  88 CALM      29.91R
PERRIS           N/A     44  44  97 E3          N/A
MENIFEE          N/A     46  46  99 S1        30.02S
HEMET EAST       N/A     43  40  89 CALM      29.95R
FRENCH VALLEY  CLOUDY    46  45  93 CALM      29.92R
TEMECULA         N/A     47  46  99 CALM      29.88R

$$

SAN BERNARDINO AND RIVERSIDE COUNTY MOUNTAINS

CITY           SKY/WX    TMP DP  RH WIND       PRES   REMARKS
BIG BEAR AP    PTSUNNY   28  25  86 W7        29.82R FOG     WCI  21
ANGELUS OAKS     N/A     31  29  92 CALM      29.87R
PINE COVE        N/A     29  29  99 CALM      29.96R

$$

SOUTHERN DESERT INCLUDING THE COACHELLA VALLEY

CITY           SKY/WX    TMP DP  RH WIND       PRES   REMARKS
PALM SPRINGS   PTSUNNY   55  47  74 CALM      29.92R
THOUSAND PALMS   N/A     53  49  87 W2        29.91R
PALM DESERT      N/A     52  50  93 CALM      31.27S
THERMAL        MOSUNNY   52  52 100 S3        29.91R FOG
BLYTHE         CLOUDY    52  51  97 S9        29.91R
IMPERIAL AP    MOSUNNY   54  51  90 SE3       29.91S
EL CENTRO NAS  PTSUNNY   55  50  83 E3        29.91S
YUMA AZ        LGT RAIN  54  49  83 CALM      29.92S
MEXICALI       MOSUNNY   54  52  94 S5        29.94

$$

UPPER DESERT

CITY           SKY/WX    TMP DP  RH WIND       PRES   REMARKS
VICTORVILLE AP   N/A     43  37  81 SW8       29.85R
HESPERIA         N/A     43  37  80 SW14      30.03R
APPLE VALLEY     N/A     44  34  67 SW3       29.93F
PALMDALE       SUNNY     44  38  79 W14       29.86S
LANCASTER      MOSUNNY   45  37  73 SW16      29.86S
EDWARDS AFB    MOSUNNY   43  37  81 SW10      29.84S
DAGGETT        MOSUNNY   47  39  74 N6        29.85S
29 PALMS N     MOSUNNY   46  42  86 CALM      29.93R
NEEDLES        CLOUDY    52  46  80 SW10      29.89R

$$

REGIONAL REPORTS

CITY           SKY/WX    TMP DP  RH WIND       PRES   REMARKS
SANTA BARBARA  MOSUNNY   52  46  80 NE3       29.90R
SANDBERG       FOG       37  34  89 S12       29.84S VSB<1/4 WCI  29
MT. WILSON       N/A     32  34 100 MISG        N/A
LAS VEGAS NV   PTSUNNY   46  43  89 S6        29.77S
PHOENIX AZ     LGT RAIN  54  50  86 W14G26    29.89R
TIJUANA        RAIN      52  45  76 E7        29.96R
ENSENADA NW      N/A     52  32  46 E3        29.96R

$$

OFFSHORE ISLANDS

CITY           SKY/WX    TMP DP  RH WIND       PRES   REMARKS
CATALINA ARPT  PTSUNNY   49  44  83 SW9       29.90R
SAN NICOLAS IS MOSUNNY   56  44  64 W12       29.91R

$$

MARINE AND OFFSHORE BUOY REPORTS

STATION/POSITION SKY/WX   TEMP    WIND        PRES    SWELL
                          AIR SEA DIR/SP/G            HT/PER/DIR
                          (F)     (DEG/KT/KT) (MB)    (FT/S/D)
TANNER BANKS               57 61  250/ 10/ 12 1013.2R   7/310/11
S CLEMENTE BASIN           58 62  220/ 10/ 14 1013.0R   3/260/13
SAN NICOLAS IS.               60                N/A     5/320/11
SO. S. ROSA ISLA           56 59  300/  8/ 10 1012.0R   7/11
W. S. BARBARA CH           56 59   60/  2/  4 1011.9R   5/310/11
S. MONICA BASIN            54 62   30/ 10/ 12 1012.8R   2/250/12
S PEDRO CHANNEL               60                N/A     2/260/11
DANA POINT                    61                N/A     2/230/13
CMP PENDLETON NS              62                N/A     2/210/15
OCEANSIDE OFFSHR              62                N/A     2/220/13
TORREY PINES OTR              62                N/A     2/260/13
LA JOLLA 1                 53 62  110/ 11/ 13 1013.1R
MISSION BAY BUOY              62                N/A     2/260/12
SAN DIEGO BAY                 64              1013.9R
POINT LOMA SOUTH              62                N/A     3/260/13

$$



USA.gov is the U.S. government's official web portal to all federal, state and local government web resources and services.